KLM835 EHAM-LSZH

Flight info

Callsign KLM835
Flight time 1h 25m
Altitude 33000
Route EDUPO Z739 MISGO DCT ASBON DCT TUSUK DCT LAMGO/N0489F270 T721 SUL/N0474F250 T721 RILAX
Aircraft B77W/H-SDE1E2E3FGHIJ2J3J4J5M1RWXY/LB1D1

Departure

Time 2026-05-05 18:47
Airport Amsterdam Airport Schiphol (EHAM)

Arrival

Time 2026-05-05 20:12
Airport Zürich Airport (LSZH)
Time Latitude Longitude Altitude Speed Heading
2026-05-05 18:15 52.31285 4.76924 4 ft 0 kts 303°
2026-05-05 18:29 52.31285 4.76925 4 ft 2 kts 303°
2026-05-05 18:29 52.31272 4.76955 4 ft 4 kts 307°
2026-05-05 18:29 52.31255 4.76986 7 ft 4 kts 328°
2026-05-05 18:30 52.31246 4.76997 6 ft 4 kts 17°
2026-05-05 18:30 52.31254 4.77018 6 ft 4 kts 60°
2026-05-05 18:30 52.31260 4.77040 4 ft 0 kts 69°
2026-05-05 18:30 52.31269 4.77059 4 ft 4 kts 46°
2026-05-05 18:31 52.31286 4.77091 4 ft 4 kts 55°
2026-05-05 18:31 52.31294 4.77121 4 ft 3 kts 69°
2026-05-05 18:31 52.31297 4.77161 4 ft 4 kts 89°
2026-05-05 18:31 52.31295 4.77204 4 ft 4 kts 95°
2026-05-05 18:32 52.31293 4.77246 4 ft 4 kts 93°
2026-05-05 18:32 52.31292 4.77256 4 ft 1 kts 92°
2026-05-05 18:34 52.31292 4.77265 4 ft 4 kts 92°
2026-05-05 18:34 52.31289 4.77369 4 ft 12 kts 92°
2026-05-05 18:34 52.31260 4.77490 4 ft 13 kts 148°
2026-05-05 18:34 52.31184 4.77500 4 ft 13 kts 186°
2026-05-05 18:35 52.31095 4.77490 4 ft 13 kts 183°
2026-05-05 18:35 52.31004 4.77483 4 ft 14 kts 182°
2026-05-05 18:35 52.30888 4.77474 4 ft 18 kts 182°
2026-05-05 18:35 52.30760 4.77462 4 ft 18 kts 184°
2026-05-05 18:36 52.30648 4.77423 4 ft 16 kts 219°
2026-05-05 18:36 52.30572 4.77243 4 ft 25 kts 237°
2026-05-05 18:36 52.30469 4.76976 4 ft 28 kts 238°
2026-05-05 18:36 52.30391 4.76772 4 ft 17 kts 238°
2026-05-05 18:37 52.30327 4.76607 4 ft 17 kts 238°
2026-05-05 18:37 52.30263 4.76441 4 ft 17 kts 238°
2026-05-05 18:37 52.30205 4.76290 5 ft 16 kts 238°
2026-05-05 18:37 52.30144 4.76131 4 ft 19 kts 238°
2026-05-05 18:38 52.30066 4.75928 4 ft 22 kts 238°
2026-05-05 18:38 52.29991 4.75731 4 ft 19 kts 238°
2026-05-05 18:38 52.29925 4.75558 4 ft 16 kts 238°
2026-05-05 18:38 52.29877 4.75434 4 ft 12 kts 237°
2026-05-05 18:39 52.29834 4.75314 4 ft 12 kts 248°
2026-05-05 18:39 52.29851 4.75181 4 ft 14 kts 305°
2026-05-05 18:39 52.29928 4.75034 4 ft 21 kts 311°
2026-05-05 18:39 52.30037 4.74833 4 ft 24 kts 311°
2026-05-05 18:40 52.30065 4.74781 5 ft 0 kts 310°
2026-05-05 18:40 52.30066 4.74779 5 ft 1 kts 310°
2026-05-05 18:40 52.30095 4.74726 8 ft 10 kts 312°
2026-05-05 18:40 52.30140 4.74643 15 ft 10 kts 311°
2026-05-05 18:41 52.30186 4.74558 15 ft 10 kts 311°
2026-05-05 18:41 52.30232 4.74475 15 ft 9 kts 311°
2026-05-05 18:41 52.30273 4.74396 15 ft 9 kts 311°
2026-05-05 18:41 52.30326 4.74294 4 ft 16 kts 310°
2026-05-05 18:42 52.30369 4.74162 4 ft 11 kts 270°
2026-05-05 18:42 52.30357 4.74108 4 ft 0 kts 242°
2026-05-05 18:43 52.30357 4.74107 4 ft 1 kts 242°
2026-05-05 18:43 52.30344 4.74075 4 ft 6 kts 232°
2026-05-05 18:44 52.30314 4.74028 4 ft 6 kts 218°
2026-05-05 18:44 52.30301 4.74013 4 ft 1 kts 215°
2026-05-05 18:44 52.30286 4.73996 4 ft 4 kts 215°
2026-05-05 18:44 52.30244 4.73946 4 ft 9 kts 217°
2026-05-05 18:45 52.30204 4.73883 3 ft 7 kts 237°
2026-05-05 18:45 52.30194 4.73807 3 ft 7 kts 273°
2026-05-05 18:45 52.30218 4.73752 2 ft 6 kts 337°
2026-05-05 18:45 52.30256 4.73744 1 ft 0 kts
2026-05-05 18:46 52.30259 4.73745 1 ft 6 kts
2026-05-05 18:46 52.30350 4.73750 1 ft 40 kts
2026-05-05 18:47 52.30870 4.73803 4 ft 117 kts
2026-05-05 18:47 52.31910 4.73902 88 ft 173 kts
2026-05-05 18:47 52.33073 4.74002 1043 ft 166 kts
2026-05-05 18:47 52.34188 4.74174 1928 ft 162 kts 21°
2026-05-05 18:48 52.35233 4.75051 2284 ft 182 kts 27°
2026-05-05 18:48 52.36474 4.75989 2576 ft 212 kts 25°
2026-05-05 18:48 52.37870 4.77047 3098 ft 226 kts 32°
2026-05-05 18:48 52.39040 4.78822 3668 ft 237 kts 49°
2026-05-05 18:49 52.40158 4.80893 4373 ft 247 kts 45°
2026-05-05 18:49 52.41369 4.82939 5256 ft 251 kts 45°
2026-05-05 18:49 52.42349 4.85353 5820 ft 265 kts 72°
2026-05-05 18:49 52.42443 4.88395 6518 ft 272 kts 93°
2026-05-05 18:50 52.42440 4.91525 7154 ft 280 kts 84°
2026-05-05 18:50 52.42623 4.94716 8075 ft 281 kts 83°
2026-05-05 18:50 52.42700 4.97786 8809 ft 284 kts 97°
2026-05-05 18:50 52.42021 5.00838 9526 ft 292 kts 124°
2026-05-05 18:51 52.40562 5.03120 10362 ft 295 kts 150°
2026-05-05 18:51 52.38580 5.04304 10749 ft 317 kts 172°
2026-05-05 18:51 52.36302 5.04537 10961 ft 344 kts 180°
2026-05-05 18:51 52.33812 5.04489 11261 ft 369 kts 181°
2026-05-05 18:52 52.31194 5.04366 12059 ft 381 kts 182°
2026-05-05 18:52 52.28523 5.04242 12831 ft 386 kts 180°
2026-05-05 18:52 52.25843 5.04860 12897 ft 394 kts 161°
2026-05-05 18:52 52.23456 5.06936 12913 ft 391 kts 141°
2026-05-05 18:53 52.21592 5.10176 13505 ft 395 kts 124°
2026-05-05 18:53 52.20309 5.14131 14487 ft 395 kts 113°
2026-05-05 18:53 52.19240 5.18277 15417 ft 399 kts 112°
2026-05-05 18:53 52.18173 5.22456 16468 ft 401 kts 112°
2026-05-05 18:54 52.17086 5.26686 17503 ft 405 kts 113°
2026-05-05 18:54 52.15977 5.30943 18425 ft 411 kts 113°
2026-05-05 18:54 52.14842 5.35244 19241 ft 416 kts 114°
2026-05-05 18:54 52.13764 5.39292 20007 ft 420 kts 115°
2026-05-05 18:55 52.12593 5.43666 20835 ft 425 kts 115°
2026-05-05 18:55 52.11396 5.48121 21594 ft 431 kts 115°
2026-05-05 18:55 52.10198 5.52622 22334 ft 437 kts 115°
2026-05-05 18:55 52.08975 5.57196 23089 ft 442 kts 116°
2026-05-05 18:56 52.07724 5.61801 23777 ft 447 kts 117°
2026-05-05 18:56 52.06309 5.66295 24431 ft 448 kts 123°
2026-05-05 18:56 52.04591 5.70510 25104 ft 449 kts 129°
2026-05-05 18:56 52.02589 5.74404 25756 ft 449 kts 134°
2026-05-05 18:57 52.00472 5.78187 26388 ft 453 kts 134°
2026-05-05 18:57 51.98401 5.82040 26978 ft 456 kts 133°
2026-05-05 18:57 51.96317 5.85969 27583 ft 459 kts 133°
2026-05-05 18:57 51.94247 5.89846 28137 ft 462 kts 133°
2026-05-05 18:58 51.92118 5.93809 28682 ft 465 kts 133°
2026-05-05 18:58 51.89995 5.97750 29201 ft 468 kts 133°
2026-05-05 18:58 51.87849 6.01732 29662 ft 470 kts 133°
2026-05-05 18:58 51.85684 6.05739 30072 ft 473 kts 133°
2026-05-05 18:59 51.83514 6.09734 30415 ft 475 kts 134°
2026-05-05 18:59 51.81332 6.13725 30927 ft 473 kts 134°
2026-05-05 18:59 51.79165 6.17682 31518 ft 469 kts 134°
2026-05-05 18:59 51.77000 6.21633 32126 ft 464 kts 134°
2026-05-05 19:00 51.74872 6.25517 32696 ft 461 kts 134°
2026-05-05 19:00 51.72745 6.29399 32871 ft 465 kts 134°
2026-05-05 19:00 51.68472 6.37188 32853 ft 461 kts 134°
2026-05-05 19:01 51.64231 6.44899 32859 ft 458 kts 134°
2026-05-05 19:01 51.59973 6.52606 32866 ft 458 kts 134°
2026-05-05 19:02 51.55759 6.60214 32869 ft 459 kts 134°
2026-05-05 19:02 51.53655 6.64005 33038 ft 462 kts 134°
2026-05-05 19:02 51.51515 6.67858 33515 ft 460 kts 134°
2026-05-05 19:03 51.49400 6.71664 34049 ft 455 kts 134°
2026-05-05 19:03 51.47292 6.75449 34411 ft 455 kts 134°
2026-05-05 19:03 51.45176 6.79240 34646 ft 457 kts 135°
2026-05-05 19:03 51.43039 6.83049 34756 ft 460 kts 136°
2026-05-05 19:04 51.38273 6.89829 34827 ft 456 kts 146°
2026-05-05 19:04 51.32948 6.95242 34833 ft 452 kts 150°
2026-05-05 19:05 51.27606 7.00554 34844 ft 453 kts 149°
2026-05-05 19:05 51.22255 7.05914 34842 ft 456 kts 149°
2026-05-05 19:06 51.17487 7.10686 34837 ft 458 kts 149°
2026-05-05 19:06 51.12076 7.16084 34842 ft 460 kts 149°
2026-05-05 19:07 51.06643 7.21487 34837 ft 461 kts 149°
2026-05-05 19:07 51.01200 7.26884 34833 ft 461 kts 149°
2026-05-05 19:08 50.95750 7.32273 34835 ft 460 kts 149°
2026-05-05 19:08 50.90321 7.37627 34836 ft 459 kts 149°
2026-05-05 19:09 50.84896 7.42963 34832 ft 459 kts 149°
2026-05-05 19:09 50.79465 7.48289 34829 ft 459 kts 149°
2026-05-05 19:10 50.74043 7.53594 34823 ft 459 kts 149°
2026-05-05 19:10 50.68650 7.58983 34823 ft 459 kts 147°
2026-05-05 19:11 50.63209 7.64229 34794 ft 459 kts 154°
2026-05-05 19:11 50.57323 7.68109 34812 ft 459 kts 157°
2026-05-05 19:12 50.51443 7.72027 34814 ft 460 kts 157°
2026-05-05 19:12 50.45662 7.75926 34812 ft 460 kts 156°
2026-05-05 19:13 50.39784 7.79884 34818 ft 461 kts 157°
2026-05-05 19:13 50.33889 7.83836 34821 ft 461 kts 157°
2026-05-05 19:14 50.27974 7.87787 34814 ft 462 kts 157°
2026-05-05 19:14 50.22060 7.91725 34816 ft 462 kts 157°
2026-05-05 19:15 50.16137 7.95660 34828 ft 462 kts 157°
2026-05-05 19:15 50.10219 7.99580 34830 ft 463 kts 157°
2026-05-05 19:16 50.04274 8.03508 34829 ft 464 kts 157°
2026-05-05 19:16 49.98587 8.07256 34824 ft 464 kts 157°
2026-05-05 19:17 49.92629 8.11172 34833 ft 464 kts 157°
2026-05-05 19:17 49.86661 8.15083 34830 ft 465 kts 157°
2026-05-05 19:18 49.80695 8.18984 34829 ft 465 kts 157°
2026-05-05 19:18 49.74733 8.22870 34821 ft 466 kts 157°
2026-05-05 19:19 49.68756 8.26757 34821 ft 466 kts 157°
2026-05-05 19:19 49.62623 8.30014 34829 ft 466 kts 167°
2026-05-05 19:20 49.56192 8.31459 34830 ft 467 kts 173°
2026-05-05 19:20 49.49733 8.32662 34831 ft 468 kts 172°
2026-05-05 19:21 49.43279 8.33926 34832 ft 468 kts 172°
2026-05-05 19:21 49.36827 8.35197 34726 ft 466 kts 172°
2026-05-05 19:22 49.33602 8.35829 34247 ft 464 kts 172°
2026-05-05 19:22 49.30424 8.36450 33766 ft 457 kts 172°
2026-05-05 19:22 49.27329 8.37054 33214 ft 451 kts 172°
2026-05-05 19:22 49.24196 8.37664 32683 ft 445 kts 172°
2026-05-05 19:23 49.21179 8.38251 32149 ft 441 kts 172°
2026-05-05 19:23 49.18147 8.38841 31628 ft 437 kts 172°
2026-05-05 19:23 49.16121 8.39234 31280 ft 434 kts 172°
2026-05-05 19:23 49.12176 8.39998 30615 ft 428 kts 172°
2026-05-05 19:24 49.10185 8.40384 30282 ft 426 kts 172°
2026-05-05 19:24 49.06323 8.41130 29585 ft 421 kts 172°
2026-05-05 19:24 49.04364 8.41509 29194 ft 418 kts 173°
2026-05-05 19:24 49.01489 8.42064 28651 ft 414 kts 173°
2026-05-05 19:25 48.98648 8.42611 28092 ft 410 kts 173°
2026-05-05 19:25 48.95827 8.43154 27556 ft 407 kts 173°
2026-05-05 19:25 48.93028 8.43692 27029 ft 403 kts 173°
2026-05-05 19:25 48.90258 8.44224 26515 ft 400 kts 173°
2026-05-05 19:26 48.87505 8.44752 26006 ft 397 kts 173°
2026-05-05 19:26 48.84758 8.45279 25509 ft 395 kts 173°
2026-05-05 19:26 48.82047 8.45798 25015 ft 392 kts 173°
2026-05-05 19:26 48.79346 8.46314 24534 ft 389 kts 173°
2026-05-05 19:27 48.76670 8.46825 24080 ft 387 kts 173°
2026-05-05 19:27 48.74011 8.47333 23890 ft 386 kts 173°
2026-05-05 19:27 48.71339 8.47841 23844 ft 387 kts 173°
2026-05-05 19:27 48.68688 8.48345 23838 ft 381 kts 173°
2026-05-05 19:28 48.66066 8.48844 23822 ft 378 kts 173°
2026-05-05 19:28 48.63461 8.49339 23843 ft 378 kts 173°
2026-05-05 19:28 48.60840 8.49836 23845 ft 380 kts 173°
2026-05-05 19:28 48.58243 8.50319 23849 ft 381 kts 174°
2026-05-05 19:29 48.55584 8.50528 23842 ft 382 kts 180°
2026-05-05 19:29 48.52932 8.50536 23843 ft 382 kts 180°
2026-05-05 19:29 48.50273 8.50539 23844 ft 382 kts 180°
2026-05-05 19:29 48.47611 8.50552 23847 ft 382 kts 180°
2026-05-05 19:30 48.44962 8.50575 23851 ft 381 kts 180°
2026-05-05 19:30 48.42283 8.50607 23835 ft 380 kts 180°
2026-05-05 19:30 48.39635 8.50643 23856 ft 379 kts 179°
2026-05-05 19:30 48.37028 8.50682 23855 ft 379 kts 179°
2026-05-05 19:31 48.34393 8.50723 23850 ft 378 kts 179°
2026-05-05 19:31 48.31765 8.50765 23856 ft 377 kts 179°
2026-05-05 19:31 48.29140 8.50806 23856 ft 377 kts 179°
2026-05-05 19:31 48.26525 8.50848 23858 ft 376 kts 180°
2026-05-05 19:32 48.23907 8.50889 23861 ft 376 kts 180°
2026-05-05 19:32 48.21282 8.50931 23863 ft 376 kts 180°
2026-05-05 19:32 48.18709 8.50972 23865 ft 376 kts 180°
2026-05-05 19:32 48.16089 8.51013 23867 ft 376 kts 180°
2026-05-05 19:33 48.13472 8.51054 23865 ft 376 kts 180°
2026-05-05 19:33 48.10860 8.51095 23865 ft 376 kts 180°
2026-05-05 19:33 48.08243 8.51136 23871 ft 376 kts 180°
2026-05-05 19:33 48.05636 8.51177 23871 ft 376 kts 180°
2026-05-05 19:34 48.03010 8.51219 23870 ft 376 kts 180°
2026-05-05 19:34 48.00395 8.51260 23870 ft 376 kts 180°
2026-05-05 19:34 47.97777 8.51301 23876 ft 375 kts 180°
2026-05-05 19:35 47.92839 8.53232 23882 ft 383 kts 148°
2026-05-05 19:35 47.90708 8.55709 23701 ft 390 kts 143°
2026-05-05 19:35 47.89187 8.57566 23532 ft 389 kts 143°
2026-05-05 19:35 47.87098 8.60100 23267 ft 385 kts 143°
2026-05-05 19:36 47.85036 8.62603 22993 ft 381 kts 143°
2026-05-05 19:36 47.82995 8.65084 22705 ft 378 kts 143°
2026-05-05 19:36 47.80956 8.67563 22424 ft 377 kts 144°
2026-05-05 19:36 47.78933 8.70018 22156 ft 376 kts 144°
2026-05-05 19:37 47.76916 8.72463 21895 ft 375 kts 144°
2026-05-05 19:37 47.74893 8.74911 21619 ft 374 kts 144°
2026-05-05 19:37 47.72877 8.77348 21351 ft 374 kts 144°
2026-05-05 19:37 47.70871 8.79771 21122 ft 374 kts 144°
2026-05-05 19:38 47.68853 8.82205 20853 ft 374 kts 144°
2026-05-05 19:38 47.66842 8.84630 20595 ft 370 kts 144°
2026-05-05 19:38 47.64862 8.87014 20327 ft 363 kts 144°
2026-05-05 19:38 47.63008 8.89519 20052 ft 359 kts 135°
2026-05-05 19:39 47.61468 8.92397 19790 ft 354 kts 128°
2026-05-05 19:39 47.60210 8.95510 19534 ft 351 kts 120°
2026-05-05 19:39 47.59127 8.98734 19290 ft 348 kts 120°
2026-05-05 19:39 47.58027 9.01920 19044 ft 347 kts 121°
2026-05-05 19:40 47.56981 9.05116 18781 ft 343 kts 113°
2026-05-05 19:40 47.56446 9.08585 18538 ft 349 kts 99°
2026-05-05 19:40 47.56199 9.12187 18326 ft 354 kts 98°
2026-05-05 19:40 47.55920 9.15829 17847 ft 359 kts 99°
2026-05-05 19:41 47.55616 9.19516 17315 ft 361 kts 99°
2026-05-05 19:41 47.55302 9.23200 16793 ft 361 kts 99°
2026-05-05 19:41 47.54984 9.26886 16281 ft 362 kts 99°
2026-05-05 19:41 47.54731 9.30563 15767 ft 357 kts 91°
2026-05-05 19:42 47.55253 9.34123 15227 ft 357 kts 63°
2026-05-05 19:42 47.56795 9.36947 14752 ft 355 kts 36°
2026-05-05 19:42 47.58958 9.38626 14282 ft 350 kts 15°
2026-05-05 19:42 47.61322 9.39237 13976 ft 340 kts 358°
2026-05-05 19:43 47.63608 9.38812 13894 ft 322 kts 339°
2026-05-05 19:43 47.65589 9.37396 13886 ft 317 kts 320°
2026-05-05 19:43 47.67143 9.35116 13796 ft 313 kts 302°
2026-05-05 19:43 47.68098 9.32257 13538 ft 308 kts 284°
2026-05-05 19:44 47.68369 9.29154 13271 ft 302 kts 266°
2026-05-05 19:44 47.67988 9.26127 13012 ft 296 kts 250°
2026-05-05 19:44 47.67159 9.23391 12939 ft 288 kts 240°
2026-05-05 19:44 47.65911 9.21106 12876 ft 284 kts 218°
2026-05-05 19:45 47.64234 9.19701 12871 ft 268 kts 213°
2026-05-05 19:45 47.62802 9.18032 12903 ft 260 kts 225°
2026-05-05 19:45 47.61437 9.16217 12895 ft 266 kts 220°
2026-05-05 19:45 47.59979 9.14535 12878 ft 265 kts 219°
2026-05-05 19:46 47.58647 9.12743 12875 ft 255 kts 234°
2026-05-05 19:46 47.57831 9.10425 12883 ft 255 kts 252°
2026-05-05 19:46 47.57509 9.07841 12902 ft 257 kts 264°
2026-05-05 19:46 47.57492 9.05183 12898 ft 259 kts 270°
2026-05-05 19:47 47.57640 9.02527 12868 ft 257 kts 280°
2026-05-05 19:47 47.58441 9.00152 12909 ft 268 kts 308°
2026-05-05 19:47 47.59978 8.98479 12879 ft 282 kts 332°
2026-05-05 19:47 47.61902 8.97794 12883 ft 291 kts 355°
2026-05-05 19:48 47.63909 8.98283 12871 ft 297 kts 20°
2026-05-05 19:48 47.65609 9.00013 12879 ft 300 kts 48°
2026-05-05 19:48 47.66612 9.02696 12873 ft 299 kts 77°
2026-05-05 19:48 47.66765 9.05727 12877 ft 292 kts 99°
2026-05-05 19:49 47.66479 9.08687 12904 ft 294 kts 100°
2026-05-05 19:49 47.66298 9.10701 12898 ft 298 kts 100°
2026-05-05 19:49 47.65944 9.14804 12892 ft 300 kts 99°
2026-05-05 19:49 47.65603 9.17820 12857 ft 291 kts 111°
2026-05-05 19:50 47.64572 9.20283 12901 ft 280 kts 142°
2026-05-05 19:50 47.62946 9.21729 12878 ft 277 kts 166°
2026-05-05 19:50 47.61063 9.22130 12899 ft 272 kts 187°
2026-05-05 19:50 47.59233 9.21473 12871 ft 266 kts 209°
2026-05-05 19:51 47.57771 9.19875 12871 ft 261 kts 230°
2026-05-05 19:51 47.56820 9.17592 12673 ft 264 kts 248°
2026-05-05 19:51 47.56406 9.14962 12399 ft 263 kts 268°
2026-05-05 19:51 47.56558 9.12276 12154 ft 261 kts 276°
2026-05-05 19:52 47.56823 9.09618 11904 ft 261 kts 276°
2026-05-05 19:52 47.57074 9.06993 11654 ft 260 kts 275°
2026-05-05 19:52 47.57314 9.04342 11395 ft 259 kts 275°
2026-05-05 19:52 47.57745 9.01783 11091 ft 258 kts 294°
2026-05-05 19:53 47.58895 8.99741 10872 ft 264 kts 319°
2026-05-05 19:53 47.60557 8.98468 10632 ft 275 kts 340°
2026-05-05 19:53 47.62508 8.98188 10401 ft 285 kts
2026-05-05 19:53 47.64365 8.99146 10170 ft 290 kts 33°
2026-05-05 19:54 47.65758 9.01330 9920 ft 290 kts 63°
2026-05-05 19:54 47.66288 9.04161 9657 ft 284 kts 92°
2026-05-05 19:54 47.65933 9.06938 9391 ft 276 kts 119°
2026-05-05 19:54 47.64795 9.09125 9142 ft 265 kts 147°
2026-05-05 19:55 47.63146 9.10200 8953 ft 250 kts 177°
2026-05-05 19:55 47.61478 9.09908 8899 ft 241 kts 206°
2026-05-05 19:55 47.60168 9.08396 8902 ft 242 kts 235°
2026-05-05 19:55 47.59557 9.06071 8904 ft 249 kts 263°
2026-05-05 19:56 47.59730 9.03528 8894 ft 251 kts 280°
2026-05-05 19:56 47.60186 9.00999 8902 ft 255 kts 283°
2026-05-05 19:56 47.60686 8.98463 8888 ft 257 kts 283°
2026-05-05 19:56 47.61196 8.95920 8893 ft 257 kts 283°
2026-05-05 19:57 47.61700 8.93422 8892 ft 256 kts 283°
2026-05-05 19:57 47.62046 8.91722 8890 ft 254 kts 283°
2026-05-05 19:57 47.62732 8.88382 8889 ft 252 kts 283°
2026-05-05 19:57 47.63245 8.85912 8890 ft 250 kts 283°
2026-05-05 19:58 47.63761 8.83461 8886 ft 248 kts 283°
2026-05-05 19:58 47.64274 8.81029 8896 ft 247 kts 283°
2026-05-05 19:58 47.64787 8.78598 8909 ft 247 kts 283°
2026-05-05 19:58 47.65301 8.76166 8901 ft 247 kts 283°
2026-05-05 19:59 47.65594 8.73728 8894 ft 238 kts 262°
2026-05-05 19:59 47.65056 8.71431 8907 ft 241 kts 233°
2026-05-05 19:59 47.63761 8.69858 8906 ft 246 kts 205°
2026-05-05 19:59 47.62091 8.69471 8906 ft 252 kts 176°
2026-05-05 20:00 47.60513 8.70321 8896 ft 260 kts 149°
2026-05-05 20:00 47.59329 8.72229 8901 ft 267 kts 123°
2026-05-05 20:00 47.58569 8.74736 8907 ft 268 kts 115°
2026-05-05 20:00 47.57912 8.77341 8915 ft 271 kts 114°
2026-05-05 20:01 47.57264 8.79975 8910 ft 273 kts 114°
2026-05-05 20:01 47.56823 8.81762 8910 ft 274 kts 114°
2026-05-05 20:01 47.56167 8.84425 8907 ft 275 kts 114°
2026-05-05 20:01 47.55511 8.87093 8753 ft 277 kts 113°
2026-05-05 20:02 47.54858 8.89750 8458 ft 268 kts 113°
2026-05-05 20:02 47.54246 8.92259 8152 ft 252 kts 113°
2026-05-05 20:02 47.53670 8.94633 7841 ft 237 kts 113°
2026-05-05 20:02 47.53115 8.96919 7610 ft 235 kts 113°
2026-05-05 20:03 47.52637 8.99215 7335 ft 234 kts 101°
2026-05-05 20:03 47.52511 9.01615 7087 ft 234 kts 94°
2026-05-05 20:03 47.52462 9.04029 6854 ft 234 kts 94°
2026-05-05 20:03 47.52180 9.06341 6541 ft 227 kts 121°
2026-05-05 20:04 47.51153 9.08031 6334 ft 221 kts 156°
2026-05-05 20:04 47.49704 9.08562 6120 ft 213 kts 186°
2026-05-05 20:04 47.48273 9.08249 6053 ft 206 kts 205°
2026-05-05 20:04 47.47185 9.07058 5988 ft 193 kts 240°
2026-05-05 20:05 47.46701 9.05238 6004 ft 191 kts 253°
2026-05-05 20:05 47.46321 9.03332 5997 ft 195 kts 253°
2026-05-05 20:05 47.45932 9.01419 5984 ft 192 kts 253°
2026-05-05 20:05 47.45559 8.99567 5987 ft 185 kts 253°
2026-05-05 20:06 47.45199 8.97759 6015 ft 182 kts 253°
2026-05-05 20:06 47.44840 8.95950 5999 ft 180 kts 253°
2026-05-05 20:06 47.44505 8.94261 5983 ft 178 kts 253°
2026-05-05 20:06 47.44155 8.92499 5989 ft 178 kts 253°
2026-05-05 20:07 47.43804 8.90726 5954 ft 182 kts 253°
2026-05-05 20:07 47.43511 8.88887 5706 ft 186 kts 265°
2026-05-05 20:07 47.43581 8.86993 5465 ft 184 kts 273°
2026-05-05 20:07 47.43683 8.85131 5219 ft 181 kts 272°
2026-05-05 20:08 47.43777 8.83315 5066 ft 171 kts 272°
2026-05-05 20:08 47.43870 8.81633 4978 ft 158 kts 273°
2026-05-05 20:08 47.43955 8.80020 5006 ft 159 kts 273°
2026-05-05 20:08 47.44098 8.78410 5017 ft 156 kts 276°
2026-05-05 20:09 47.44239 8.76847 4945 ft 156 kts 273°
2026-05-05 20:09 47.44362 8.75190 4634 ft 164 kts 273°
2026-05-05 20:09 47.44468 8.73510 4103 ft 165 kts 272°
2026-05-05 20:09 47.44582 8.71913 3862 ft 147 kts 275°
2026-05-05 20:10 47.44721 8.70336 3282 ft 159 kts 276°
2026-05-05 20:10 47.44836 8.68744 2898 ft 156 kts 273°
2026-05-05 20:10 47.44936 8.67149 2579 ft 156 kts 274°
2026-05-05 20:10 47.45066 8.65510 2468 ft 162 kts 275°
2026-05-05 20:11 47.45174 8.63889 2335 ft 156 kts 273°
2026-05-05 20:11 47.45284 8.62348 2184 ft 148 kts 274°
2026-05-05 20:11 47.45385 8.60874 2048 ft 149 kts 275°
2026-05-05 20:11 47.45504 8.59345 1785 ft 149 kts 277°
2026-05-05 20:12 47.45601 8.57856 1597 ft 145 kts 274°
2026-05-05 20:12 47.45709 8.56392 1423 ft 137 kts 274°
2026-05-05 20:12 47.45793 8.55182 1409 ft 94 kts 276°
2026-05-05 20:12 47.45842 8.54494 1395 ft 41 kts 277°
2026-05-05 20:13 47.45903 8.54275 1407 ft 13 kts 330°
2026-05-05 20:13 47.45953 8.54319 1402 ft 10 kts 77°
2026-05-05 20:13 47.45953 8.54424 1397 ft 9 kts 97°
2026-05-05 20:13 47.45952 8.54441 1396 ft 2 kts 97°
2026-05-05 20:14 47.45949 8.54470 1405 ft 4 kts 97°
2026-05-05 20:14 47.45942 8.54565 1395 ft 17 kts 96°
2026-05-05 20:14 47.45928 8.54769 1401 ft 20 kts 96°
2026-05-05 20:14 47.45915 8.54967 1398 ft 18 kts 95°
2026-05-05 20:15 47.45904 8.55116 1409 ft 0 kts 96°
2026-05-05 20:15 47.45904 8.55117 1409 ft 0 kts 96°
2026-05-05 20:16 47.45905 8.55120 1409 ft 2 kts 85°
2026-05-05 20:16 47.45934 8.55137 1410 ft 10 kts
2026-05-05 20:16 47.46038 8.55072 1406 ft 21 kts 335°
2026-05-05 20:17 47.46171 8.54981 1404 ft 20 kts 334°
2026-05-05 20:17 47.46272 8.54971 1402 ft 14 kts 36°
2026-05-05 20:17 47.46287 8.55072 1401 ft 11 kts 99°
2026-05-05 20:17 47.46277 8.55183 1400 ft 11 kts 97°
2026-05-05 20:18 47.46265 8.55263 1409 ft 5 kts 134°
2026-05-05 20:18 47.46235 8.55286 1408 ft 5 kts 163°
2026-05-05 20:18 47.46210 8.55287 1403 ft 3 kts 185°
2026-05-05 20:18 47.46193 8.55285 1402 ft 0 kts 185°